TimeEST,TemperatureF,Dew PointF,Humidity,Sea Level PressureIn,VisibilityMPH,Wind Direction,Wind SpeedMPH,Gust SpeedMPH,PrecipitationIn,Events,Conditions,WindDirDegrees,DateUTC
12:53 AM,69.1,66.0,90,29.87,10.0,North,8.1,-,N/A,,Partly Cloudy,360,2012-11-07 05:53:00
1:53 AM,66.0,64.0,93,29.88,10.0,Calm,Calm,-,N/A,,Clear,0,2012-11-07 06:53:00
2:53 AM,64.9,61.0,87,29.87,10.0,Calm,Calm,-,N/A,,Clear,0,2012-11-07 07:53:00
3:53 AM,64.0,59.0,84,29.88,10.0,North,3.5,-,N/A,,Scattered Clouds,10,2012-11-07 08:53:00
4:53 AM,63.0,57.0,81,29.89,10.0,North,3.5,-,N/A,,Partly Cloudy,360,2012-11-07 09:53:00
5:53 AM,62.1,57.0,84,29.91,10.0,Calm,Calm,-,N/A,,Scattered Clouds,0,2012-11-07 10:53:00
6:53 AM,68.0,54.0,61,29.93,10.0,NW,9.2,-,N/A,,Clear,320,2012-11-07 11:53:00
7:53 AM,63.0,57.0,81,29.95,10.0,North,8.1,-,N/A,,Scattered Clouds,10,2012-11-07 12:53:00
8:53 AM,66.0,57.0,73,29.96,10.0,North,9.2,-,N/A,,Clear,360,2012-11-07 13:53:00
9:53 AM,69.1,57.0,65,29.97,10.0,North,6.9,-,N/A,,Scattered Clouds,360,2012-11-07 14:53:00
10:53 AM,70.0,57.0,63,29.97,10.0,NW,12.7,18.4,N/A,,Partly Cloudy,320,2012-11-07 15:53:00
11:53 AM,69.1,55.9,63,29.96,10.0,NW,15.0,23.0,N/A,,Partly Cloudy,320,2012-11-07 16:53:00
12:53 PM,70.0,55.9,61,29.93,10.0,NW,13.8,23.0,N/A,,Clear,320,2012-11-07 17:53:00
1:53 PM,70.0,55.9,61,29.91,10.0,NW,13.8,23.0,N/A,,Scattered Clouds,320,2012-11-07 18:53:00
2:53 PM,70.0,55.0,59,29.91,10.0,NW,10.4,21.9,N/A,,Partly Cloudy,310,2012-11-07 19:53:00
3:53 PM,68.0,55.0,63,29.91,10.0,NW,11.5,20.7,N/A,,Scattered Clouds,310,2012-11-07 20:53:00
4:53 PM,68.0,53.1,59,29.92,10.0,NW,9.2,21.9,N/A,,Partly Cloudy,320,2012-11-07 21:53:00
6:53 PM,66.0,53.1,63,29.95,10.0,NNW,9.2,-,N/A,,Partly Cloudy,330,2012-11-07 23:53:00
7:53 PM,63.0,52.0,67,29.96,10.0,North,4.6,-,N/A,,Partly Cloudy,10,2012-11-08 00:53:00
8:53 PM,63.0,52.0,67,29.99,10.0,North,3.5,-,N/A,,Mostly Cloudy,10,2012-11-08 01:53:00
9:53 PM,63.0,51.1,65,30.01,10.0,North,5.8,-,N/A,,Overcast,10,2012-11-08 02:53:00
10:53 PM,63.0,50.0,63,30.00,10.0,NNE,4.6,-,N/A,,Overcast,30,2012-11-08 03:53:00
11:53 PM,62.1,50.0,65,30.00,10.0,NNE,3.5,-,N/A,,Overcast,20,2012-11-08 04:53:00